Flag for U.S.A. Weather past 2 weeks in Burbank, California, U.S.A.

Now
52 °F

Clear.


Feels Like: 52 °F
Forecast: 50 / 71 °F
Wind: No wind

Location: Burbank-Glendale-Pasadena Airport

Current Time: Dec 21, 2014 at 1:59:50 AM

Latest Report: Dec 21, 2014 at 12:53 AM


Visibility: 6 mi

Pressure: 30.12 "Hg

Humidity: 80%

Dew point: 46 °F

Location of BurbankLocation

Historic Weather in Burbank — Graph

°F

Burbank temperature yesterday

Maximum temperature yesterday: 62 °F (at 1:53 PM)
Minimum temperature yesterday: 47 °F (at 4:53 AM)
Average temperature yesterday: 54 °F

Past Weeks' High & Low Weather Summary

 TemperatureHumidityPressure
High78 °F (Dec 8, 1:53 PM)94% (Dec 12, 1:56 AM)30.21 "Hg (Dec 12, 1:56 AM)
Low42 °F (Dec 14, 6:53 AM)28% (Dec 8, 1:53 PM)29.75 "Hg (Dec 12, 2:53 AM)
Average57 °F68%30.04 "Hg
* Reported Dec 6 12:53 AM — Dec 21 12:53 AM, Burbank, Weather by CustomWeather, © 2014

Note: Actual official high and low records may vary slightly from our data, if they occured in-between our weather recording intervals... More about our weather records

Advertising

Burbank weather history for previous 24 hours

 ConditionsComfort  
Time TempWeatherWind HumidityBarometerVisibility
12:53 AM
Dec 21
52 °FClear.No wind80%30.12 "Hg6 mi
11:53 PM
Dec 20
53 °FClear.5 mph80%30.13 "Hg7 mi
10:53 PM53 °FClear.5 mph80%30.14 "Hg7 mi
9:53 PM56 °FClear.3 mph72%30.12 "Hg9 mi
8:53 PM57 °FClear.No wind69%30.12 "Hg9 mi
7:53 PM56 °FClear.No wind72%30.12 "Hg9 mi
6:53 PM57 °FClear.No wind72%30.12 "Hg10 mi
5:53 PM58 °FClear.5 mph67%30.10 "Hg10 mi
4:53 PM59 °FClear.3 mph72%30.10 "Hg10 mi
3:53 PM61 °FSunny.6 mph65%30.09 "Hg10 mi
2:53 PM62 °FSunny.6 mph62%30.09 "Hg10 mi
1:53 PM62 °FSunny.3 mph60%30.09 "Hg10 mi
12:53 PM61 °FSunny.3 mph62%30.11 "Hg10 mi
11:53 AM59 °FSunny.No wind62%30.14 "Hg10 mi
10:53 AM57 °FSunny.No wind64%30.16 "Hg10 mi
9:53 AM55 °FSunny.No wind69%30.17 "Hg10 mi
8:53 AM52 °FSunny.No wind77%30.16 "Hg10 mi
7:53 AM48 °FSunny.No wind83%30.15 "Hg10 mi
6:53 AM48 °FClear.No wind80%30.14 "Hg10 mi
5:53 AM48 °FClear.3 mph83%30.13 "Hg10 mi
4:53 AM47 °FClear.No wind86%30.11 "Hg10 mi
3:53 AM48 °FClear.No wind80%30.11 "Hg10 mi
2:53 AM49 °FClear.3 mph80%30.13 "Hg10 mi
1:53 AM49 °FClear.No wind84%30.13 "Hg10 mi
Weather by CustomWeather, © 2014

See weather overviewHow to use our weather pages